QPF
0.03 0.05 0.06 0.06 0.09 0.17 0.22 0.26 0.37 0.31 0.20 0.13 0.09 0.10 0.10 0.10 0.08 0.06 0.05 0.05 0.06 0.04 0.02 0.01 0.01 0.01 0.01 0.01 0.01 0.01 0.01 0.01 0.01 0.01 0.01 0.01 0.01 0.01 0.01 0.01 0.02 0.01 0.01
0.03 0.04 0.06 0.05 0.06 0.09 0.15 0.25 0.29 0.25 0.20 0.14 0.11 0.11 0.12 0.13 0.11 0.09 0.07 0.06 0.05 0.04 0.02 0.01 0.01 0.01 0.01 0.01 0.01 0.01 0.01 0.01 0.01 0.00 0.01 0.01 0.01 0.01 0.01 0.01 0.01 0.01 0.01
0.02 0.03 0.04 0.04 0.05 0.07 0.10 0.20 0.23 0.20 0.16 0.14 0.13 0.11 0.12 0.13 0.12 0.10 0.07 0.05 0.05 0.04 0.02 0.01 0.01 0.01 0.00 0.00 0.00 0.01 0.01 0.01 0.00 0.00 0.00 0.00 0.00 0.00 0.00 0.00 0.01 0.01 0.01
0.02 0.03 0.03 0.03 0.05 0.07 0.10 0.17 0.22 0.19 0.17 0.15 0.12 0.08 0.07 0.07 0.06 0.07 0.07 0.07 0.05 0.04 0.03 0.02 0.01 0.00 0.00 0.01 0.01 0.01 0.01 0.01 0.00 0.00 0.00 0.00 0.00 0.00 0.00 0.00 0.00 0.00 0.00
0.02 0.02 0.02 0.02 0.04 0.06 0.09 0.14 0.22 0.27 0.23 0.19 0.15 0.10 0.09 0.08 0.08 0.09 0.08 0.07 0.06 0.04 0.03 0.03 0.02 0.00 0.00 0.01 0.01 0.01 0.01 0.01 0.00 0.00 0.00 0.00 0.00 0.00 0.00 0.00 0.00 0.00 0.00
0.01 0.02 0.02 0.02 0.03 0.06 0.07 0.09 0.19 0.26 0.26 0.24 0.20 0.15 0.10 0.08 0.08 0.05 0.04 0.05 0.06 0.05 0.04 0.03 0.02 0.02 0.02 0.01 0.01 0.01 0.01 0.01 0.00 0.00 0.00 0.00 0.00 0.00 0.00 0.00 0.00 0.00 0.00
0.01 0.01 0.01 0.01 0.03 0.04 0.05 0.07 0.14 0.20 0.21 0.23 0.22 0.18 0.17 0.12 0.09 0.05 0.03 0.04 0.04 0.05 0.05 0.04 0.03 0.03 0.02 0.02 0.01 0.01 0.00 0.01 0.00 0.00 0.00 0.00 0.00 0.00 0.00 0.00 0.00 0.00 0.00
0.01 0.01 0.01 0.01 0.01 0.03 0.05 0.09 0.13 0.16 0.18 0.19 0.20 0.15 0.12 0.10 0.08 0.06 0.04 0.04 0.04 0.05 0.05 0.04 0.03 0.02 0.02 0.02 0.02 0.01 0.01 0.00 0.00 0.00 0.00 0.00 0.00 0.00 0.00 0.00 0.00 0.00 0.00
0.01 0.01 0.01 0.01 0.02 0.04 0.07 0.11 0.13 0.13 0.14 0.13 0.15 0.13 0.09 0.06 0.06 0.06 0.06 0.05 0.06 0.06 0.07 0.05 0.03 0.02 0.01 0.02 0.02 0.01 0.01 0.01 0.00 0.00 0.01 0.01 0.01 0.00 0.00 0.00 0.00 0.00 0.00
0.01 0.01 0.02 0.02 0.02 0.02 0.04 0.07 0.08 0.09 0.10 0.10 0.10 0.10 0.10 0.06 0.06 0.07 0.06 0.05 0.05 0.06 0.06 0.04 0.03 0.02 0.01 0.01 0.01 0.01 0.01 0.01 0.01 0.00 0.00 0.01 0.01 0.01 0.01 0.00 0.00 0.00 0.00
0.01 0.02 0.02 0.02 0.02 0.01 0.02 0.03 0.04 0.05 0.06 0.09 0.07 0.07 0.09 0.07 0.06 0.06 0.05 0.06 0.06 0.05 0.05 0.03 0.03 0.03 0.02 0.02 0.02 0.01 0.02 0.02 0.01 0.00 0.00 0.00 0.00 0.01 0.01 0.01 0.01 0.00 0.00
0.02 0.03 0.04 0.03 0.02 0.01 0.01 0.01 0.02 0.02 0.03 0.03 0.03 0.04 0.06 0.07 0.06 0.06 0.09 0.12 0.13 0.10 0.07 0.05 0.04 0.04 0.04 0.03 0.02 0.02 0.02 0.01 0.01 0.00 0.00 0.00 0.00 0.00 0.01 0.00 0.00 0.00 0.00
0.03 0.04 0.04 0.03 0.01 0.01 0.02 0.02 0.02 0.02 0.02 0.02 0.01 0.02 0.04 0.06 0.05 0.05 0.07 0.09 0.09 0.10 0.09 0.07 0.06 0.06 0.05 0.04 0.03 0.02 0.02 0.01 0.01 0.01 0.02 0.02 0.01 0.01 0.01 0.00 0.00 0.00 0.00
0.02 0.03 0.04 0.02 0.01 0.02 0.02 0.02 0.02 0.02 0.03 0.02 0.02 0.02 0.03 0.05 0.05 0.05 0.04 0.05 0.05 0.06 0.06 0.06 0.05 0.06 0.06 0.05 0.05 0.05 0.04 0.04 0.04 0.05 0.05 0.04 0.02 0.02 0.01 0.01 0.01 0.01 0.01
0.02 0.02 0.03 0.03 0.03 0.03 0.04 0.03 0.02 0.03 0.04 0.03 0.03 0.05 0.07 0.07 0.06 0.05 0.05 0.06 0.06 0.06 0.08 0.08 0.08 0.07 0.06 0.05 0.06 0.08 0.09 0.09 0.11 0.10 0.06 0.04 0.03 0.03 0.02 0.02 0.01 0.02 0.01
0.03 0.03 0.03 0.03 0.04 0.04 0.04 0.02 0.02 0.03 0.04 0.04 0.03 0.05 0.05 0.06 0.07 0.08 0.08 0.08 0.09 0.09 0.10 0.10 0.09 0.07 0.06 0.06 0.08 0.10 0.13 0.14 0.13 0.11 0.09 0.09 0.07 0.05 0.03 0.03 0.02 0.02 0.02
0.05 0.07 0.06 0.05 0.05 0.05 0.03 0.02 0.02 0.02 0.03 0.04 0.04 0.05 0.04 0.06 0.07 0.09 0.09 0.08 0.09 0.11 0.12 0.11 0.09 0.08 0.09 0.10 0.09 0.09 0.09 0.09 0.09 0.08 0.07 0.06 0.05 0.05 0.04 0.04 0.05 0.05 0.05
0.03 0.05 0.07 0.08 0.07 0.06 0.04 0.03 0.03 0.02 0.03 0.04 0.05 0.05 0.05 0.08 0.10 0.09 0.08 0.09 0.10 0.14 0.14 0.12 0.10 0.10 0.10 0.09 0.09 0.08 0.06 0.05 0.04 0.05 0.04 0.04 0.03 0.04 0.04 0.04 0.03 0.04 0.04
0.04 0.04 0.06 0.09 0.09 0.09 0.08 0.06 0.05 0.04 0.06 0.08 0.08 0.07 0.08 0.10 0.11 0.10 0.11 0.13 0.14 0.16 0.17 0.14 0.13 0.12 0.10 0.09 0.09 0.08 0.07 0.07 0.08 0.08 0.08 0.07 0.06 0.06 0.06 0.05 0.03 0.03 0.03
0.05 0.05 0.07 0.07 0.08 0.12 0.13 0.10 0.09 0.08 0.07 0.09 0.09 0.10 0.13 0.15 0.16 0.17 0.17 0.20 0.20 0.20 0.20 0.19 0.18 0.14 0.11 0.09 0.08 0.06 0.05 0.06 0.06 0.06 0.06 0.07 0.06 0.06 0.06 0.05 0.03 0.02 0.02
0.04 0.05 0.07 0.06 0.05 0.06 0.08 0.09 0.11 0.11 0.11 0.12 0.14 0.16 0.19 0.20 0.22 0.23 0.22 0.24 0.25 0.26 0.24 0.22 0.20 0.16 0.12 0.10 0.08 0.06 0.05 0.04 0.04 0.04 0.04 0.04 0.03 0.03 0.04 0.04 0.03 0.03 0.03
0.04 0.04 0.06 0.06 0.06 0.07 0.08 0.11 0.13 0.15 0.17 0.19 0.21 0.19 0.20 0.21 0.21 0.22 0.22 0.22 0.23 0.23 0.23 0.21 0.18 0.15 0.12 0.09 0.08 0.08 0.08 0.07 0.07 0.07 0.06 0.06 0.05 0.04 0.04 0.04 0.05 0.05 0.04
0.03 0.03 0.04 0.05 0.05 0.06 0.09 0.12 0.15 0.19 0.20 0.21 0.21 0.20 0.19 0.18 0.17 0.17 0.18 0.18 0.18 0.17 0.17 0.16 0.14 0.12 0.11 0.09 0.09 0.09 0.10 0.10 0.09 0.09 0.09 0.08 0.07 0.06 0.05 0.04 0.05 0.05 0.04
0.04 0.04 0.05 0.06 0.07 0.08 0.10 0.13 0.14 0.16 0.17 0.17 0.19 0.18 0.17 0.16 0.14 0.13 0.14 0.14 0.15 0.15 0.12 0.11 0.10 0.08 0.08 0.08 0.07 0.07 0.07 0.07 0.06 0.05 0.05 0.05 0.05 0.04 0.04 0.04 0.03 0.02 0.02
0.04 0.04 0.06 0.06 0.07 0.09 0.10 0.12 0.12 0.12 0.12 0.12 0.12 0.14 0.15 0.14 0.12 0.10 0.10 0.11 0.11 0.11 0.10 0.08 0.06 0.05 0.06 0.06 0.07 0.07 0.07 0.06 0.06 0.05 0.05 0.05 0.04 0.04 0.03 0.02 0.02 0.01 0.01
0.02 0.03 0.04 0.05 0.06 0.07 0.09 0.11 0.12 0.12 0.12 0.10 0.09 0.08 0.08 0.08 0.08 0.07 0.06 0.07 0.06 0.06 0.05 0.04 0.04 0.04 0.04 0.04 0.04 0.03 0.03 0.03 0.03 0.02 0.02 0.02 0.02 0.02 0.01 0.01 0.01 0.01 0.01
MSLP
1009.57 1009.66 1009.70 1009.71 1009.76 1009.90 1010.18 1010.63 1011.25 1011.99 1012.79 1013.58 1014.27 1014.83 1015.24 1015.51 1015.69 1015.83 1015.99 1016.22 1016.53 1016.92 1017.37 1017.83 1018.27 1018.67 1019.01 1019.29 1019.56 1019.82 1020.10 1020.41 1020.75 1021.08 1021.39 1021.64 1021.80 1021.87 1021.84 1021.74 1021.61 1021.48 1021.38
1009.72 1009.84 1009.89 1009.90 1009.93 1010.02 1010.26 1010.66 1011.26 1012.00 1012.83 1013.65 1014.41 1015.02 1015.47 1015.76 1015.93 1016.03 1016.15 1016.32 1016.59 1016.94 1017.37 1017.83 1018.27 1018.68 1019.02 1019.31 1019.56 1019.81 1020.07 1020.37 1020.70 1021.05 1021.39 1021.67 1021.88 1021.99 1021.99 1021.91 1021.77 1021.61 1021.46
1009.77 1009.94 1010.04 1010.08 1010.11 1010.19 1010.39 1010.76 1011.32 1012.05 1012.88 1013.74 1014.53 1015.19 1015.68 1015.99 1016.16 1016.25 1016.33 1016.46 1016.68 1016.99 1017.38 1017.82 1018.26 1018.66 1019.00 1019.27 1019.51 1019.73 1019.97 1020.25 1020.58 1020.94 1021.30 1021.63 1021.89 1022.05 1022.10 1022.04 1021.91 1021.74 1021.56
1009.71 1009.95 1010.13 1010.22 1010.28 1010.37 1010.54 1010.87 1011.39 1012.08 1012.90 1013.75 1014.57 1015.26 1015.79 1016.14 1016.33 1016.42 1016.48 1016.58 1016.76 1017.03 1017.39 1017.80 1018.22 1018.61 1018.94 1019.20 1019.43 1019.63 1019.85 1020.12 1020.44 1020.80 1021.18 1021.55 1021.86 1022.07 1022.17 1022.16 1022.05 1021.87 1021.67
1009.59 1009.91 1010.16 1010.32 1010.42 1010.51 1010.66 1010.94 1011.40 1012.04 1012.81 1013.65 1014.47 1015.19 1015.76 1016.14 1016.37 1016.48 1016.55 1016.64 1016.80 1017.04 1017.37 1017.76 1018.17 1018.54 1018.87 1019.13 1019.35 1019.55 1019.76 1020.01 1020.33 1020.69 1021.09 1021.48 1021.82 1022.08 1022.22 1022.24 1022.16 1021.99 1021.78
1009.45 1009.84 1010.16 1010.38 1010.51 1010.60 1010.72 1010.94 1011.33 1011.89 1012.61 1013.41 1014.21 1014.95 1015.55 1015.99 1016.27 1016.43 1016.53 1016.64 1016.79 1017.03 1017.34 1017.72 1018.11 1018.49 1018.82 1019.09 1019.31 1019.52 1019.73 1019.97 1020.28 1020.63 1021.03 1021.42 1021.78 1022.06 1022.23 1022.28 1022.22 1022.06 1021.84
1009.34 1009.78 1010.15 1010.42 1010.56 1010.64 1010.71 1010.87 1011.17 1011.65 1012.29 1013.04 1013.83 1014.58 1015.22 1015.71 1016.05 1016.28 1016.43 1016.57 1016.75 1016.99 1017.30 1017.68 1018.07 1018.45 1018.80 1019.09 1019.33 1019.54 1019.75 1019.99 1020.28 1020.61 1020.98 1021.36 1021.70 1021.98 1022.16 1022.23 1022.19 1022.05 1021.83
1009.28 1009.75 1010.16 1010.44 1010.59 1010.64 1010.67 1010.75 1010.97 1011.36 1011.93 1012.62 1013.39 1014.14 1014.82 1015.37 1015.78 1016.08 1016.30 1016.49 1016.70 1016.96 1017.28 1017.66 1018.06 1018.45 1018.81 1019.12 1019.38 1019.60 1019.82 1020.04 1020.30 1020.60 1020.92 1021.25 1021.56 1021.82 1021.99 1022.07 1022.04 1021.93 1021.73
1009.31 1009.79 1010.21 1010.49 1010.62 1010.64 1010.62 1010.64 1010.79 1011.10 1011.60 1012.24 1012.98 1013.73 1014.44 1015.04 1015.52 1015.89 1016.18 1016.42 1016.67 1016.96 1017.29 1017.67 1018.08 1018.48 1018.85 1019.17 1019.44 1019.67 1019.87 1020.07 1020.29 1020.53 1020.80 1021.07 1021.33 1021.55 1021.70 1021.78 1021.77 1021.69 1021.54
1009.41 1009.89 1010.29 1010.56 1010.68 1010.67 1010.62 1010.59 1010.69 1010.95 1011.39 1011.99 1012.70 1013.45 1014.17 1014.82 1015.35 1015.77 1016.11 1016.41 1016.69 1016.99 1017.33 1017.72 1018.12 1018.51 1018.88 1019.20 1019.47 1019.69 1019.87 1020.04 1020.20 1020.38 1020.57 1020.78 1020.97 1021.15 1021.28 1021.37 1021.39 1021.35 1021.26
1009.57 1010.03 1010.41 1010.66 1010.76 1010.75 1010.68 1010.64 1010.72 1010.95 1011.36 1011.93 1012.61 1013.35 1014.07 1014.73 1015.29 1015.75 1016.12 1016.45 1016.75 1017.06 1017.40 1017.77 1018.15 1018.53 1018.88 1019.18 1019.43 1019.63 1019.78 1019.90 1020.01 1020.12 1020.25 1020.38 1020.52 1020.66 1020.78 1020.88 1020.94 1020.96 1020.94
1009.74 1010.17 1010.53 1010.76 1010.86 1010.85 1010.80 1010.78 1010.87 1011.11 1011.51 1012.06 1012.71 1013.42 1014.12 1014.77 1015.33 1015.79 1016.18 1016.51 1016.82 1017.13 1017.46 1017.81 1018.16 1018.51 1018.83 1019.10 1019.32 1019.48 1019.60 1019.67 1019.73 1019.79 1019.85 1019.93 1020.03 1020.14 1020.26 1020.37 1020.48 1020.57 1020.63
1009.88 1010.28 1010.61 1010.83 1010.93 1010.96 1010.96 1010.99 1011.12 1011.38 1011.79 1012.33 1012.95 1013.62 1014.28 1014.89 1015.42 1015.86 1016.24 1016.57 1016.87 1017.18 1017.49 1017.81 1018.14 1018.45 1018.73 1018.96 1019.15 1019.27 1019.35 1019.39 1019.41 1019.42 1019.45 1019.50 1019.57 1019.67 1019.80 1019.94 1020.09 1020.25 1020.39
1009.96 1010.32 1010.61 1010.82 1010.95 1011.02 1011.09 1011.20 1011.40 1011.71 1012.13 1012.66 1013.25 1013.86 1014.46 1015.01 1015.49 1015.91 1016.26 1016.58 1016.88 1017.17 1017.47 1017.78 1018.08 1018.36 1018.60 1018.80 1018.94 1019.04 1019.08 1019.10 1019.10 1019.10 1019.12 1019.16 1019.23 1019.34 1019.48 1019.65 1019.85 1020.06 1020.27
1009.95 1010.25 1010.51 1010.71 1010.86 1011.00 1011.15 1011.35 1011.63 1011.99 1012.44 1012.95 1013.50 1014.06 1014.59 1015.07 1015.50 1015.88 1016.22 1016.53 1016.83 1017.14 1017.44 1017.74 1018.02 1018.28 1018.49 1018.66 1018.77 1018.84 1018.88 1018.89 1018.90 1018.91 1018.94 1018.99 1019.08 1019.21 1019.37 1019.57 1019.80 1020.05 1020.31
1009.85 1010.08 1010.29 1010.48 1010.67 1010.87 1011.10 1011.40 1011.75 1012.18 1012.65 1013.15 1013.66 1014.15 1014.62 1015.04 1015.43 1015.78 1016.12 1016.44 1016.77 1017.10 1017.42 1017.74 1018.02 1018.26 1018.46 1018.61 1018.70 1018.77 1018.80 1018.82 1018.85 1018.90 1018.96 1019.06 1019.18 1019.34 1019.53 1019.74 1019.99 1020.25 1020.52
1009.68 1009.83 1009.99 1010.17 1010.38 1010.64 1010.96 1011.33 1011.76 1012.24 1012.73 1013.22 1013.70 1014.14 1014.56 1014.94 1015.30 1015.65 1016.01 1016.37 1016.75 1017.13 1017.50 1017.84 1018.14 1018.38 1018.57 1018.71 1018.79 1018.85 1018.90 1018.95 1019.01 1019.11 1019.22 1019.37 1019.54 1019.73 1019.94 1020.17 1020.41 1020.66 1020.91
1009.48 1009.56 1009.67 1009.83 1010.06 1010.36 1010.75 1011.19 1011.69 1012.20 1012.71 1013.20 1013.66 1014.07 1014.46 1014.83 1015.19 1015.58 1015.98 1016.41 1016.86 1017.30 1017.73 1018.11 1018.44 1018.69 1018.88 1019.00 1019.09 1019.15 1019.21 1019.29 1019.40 1019.55 1019.73 1019.93 1020.15 1020.37 1020.60 1020.82 1021.04 1021.26 1021.47
1009.33 1009.34 1009.40 1009.54 1009.78 1010.12 1010.55 1011.05 1011.59 1012.14 1012.67 1013.16 1013.61 1014.02 1014.41 1014.80 1015.20 1015.64 1016.12 1016.63 1017.16 1017.68 1018.17 1018.60 1018.95 1019.21 1019.39 1019.50 1019.58 1019.64 1019.72 1019.83 1019.99 1020.19 1020.43 1020.68 1020.95 1021.20 1021.43 1021.64 1021.83 1021.99 1022.15
1009.28 1009.23 1009.26 1009.39 1009.63 1010.00 1010.46 1011.00 1011.57 1012.14 1012.69 1013.20 1013.66 1014.09 1014.51 1014.94 1015.41 1015.92 1016.48 1017.08 1017.70 1018.29 1018.83 1019.29 1019.66 1019.92 1020.09 1020.18 1020.25 1020.31 1020.40 1020.53 1020.73 1020.97 1021.26 1021.56 1021.86 1022.14 1022.37 1022.56 1022.70 1022.81 1022.89
1009.39 1009.31 1009.32 1009.44 1009.69 1010.07 1010.55 1011.11 1011.70 1012.29 1012.86 1013.39 1013.88 1014.35 1014.82 1015.31 1015.85 1016.45 1017.09 1017.77 1018.45 1019.10 1019.68 1020.16 1020.52 1020.76 1020.91 1020.99 1021.03 1021.09 1021.18 1021.33 1021.55 1021.83 1022.16 1022.49 1022.82 1023.10 1023.33 1023.49 1023.58 1023.63 1023.63
1009.68 1009.60 1009.60 1009.73 1009.99 1010.37 1010.87 1011.43 1012.04 1012.65 1013.24 1013.79 1014.32 1014.84 1015.37 1015.93 1016.54 1017.21 1017.92 1018.66 1019.38 1020.06 1020.64 1021.11 1021.46 1021.68 1021.79 1021.84 1021.87 1021.91 1022.00 1022.16 1022.40 1022.71 1023.05 1023.41 1023.74 1024.02 1024.23 1024.36 1024.41 1024.39 1024.32
1010.16 1010.10 1010.12 1010.26 1010.53 1010.92 1011.42 1011.99 1012.60 1013.22 1013.83 1014.41 1014.98 1015.55 1016.13 1016.75 1017.42 1018.14 1018.89 1019.66 1020.39 1021.06 1021.63 1022.08 1022.39 1022.57 1022.66 1022.68 1022.69 1022.73 1022.82 1022.98 1023.23 1023.54 1023.90 1024.25 1024.58 1024.85 1025.03 1025.12 1025.12 1025.05 1024.92
1010.79 1010.77 1010.83 1010.99 1011.28 1011.68 1012.17 1012.74 1013.36 1013.98 1014.60 1015.21 1015.81 1016.42 1017.05 1017.71 1018.41 1019.15 1019.92 1020.67 1021.39 1022.03 1022.56 1022.97 1023.24 1023.39 1023.45 1023.46 1023.46 1023.49 1023.59 1023.76 1024.01 1024.32 1024.66 1025.01 1025.31 1025.55 1025.70 1025.75 1025.71 1025.59 1025.40
1011.53 1011.57 1011.67 1011.87 1012.17 1012.58 1013.07 1013.64 1014.25 1014.87 1015.50 1016.12 1016.75 1017.38 1018.03 1018.71 1019.42 1020.16 1020.91 1021.63 1022.30 1022.89 1023.38 1023.73 1023.97 1024.10 1024.15 1024.16 1024.17 1024.21 1024.31 1024.49 1024.73 1025.03 1025.36 1025.67 1025.94 1026.14 1026.25 1026.26 1026.18 1026.01 1025.78
1012.34 1012.44 1012.59 1012.83 1013.15 1013.56 1014.05 1014.60 1015.19 1015.81 1016.44 1017.07 1017.70 1018.34 1019.00 1019.68 1020.38 1021.09 1021.80 1022.47 1023.09 1023.62 1024.06 1024.37 1024.59 1024.71 1024.76 1024.79 1024.82 1024.88 1025.00 1025.18 1025.42 1025.70 1025.99 1026.27 1026.49 1026.65 1026.71 1026.67 1026.55 1026.35 1026.08
Thickness
5780 5776 5771 5767 5761 5755 5750 5746 5741 5737 5735 5731 5728 5725 5723 5724 5724 5725 5725 5725 5725 5725 5725 5724 5724 5724 5723 5722 5722 5720 5717 5715 5714 5711 5709 5709 5711 5711 5711 5711 5711 5710 5709
5776 5773 5769 5766 5761 5755 5750 5746 5741 5738 5735 5732 5730 5727 5725 5724 5725 5725 5725 5725 5725 5725 5724 5724 5724 5723 5722 5721 5721 5720 5716 5714 5713 5710 5706 5703 5704 5708 5711 5711 5711 5711 5710
5776 5771 5768 5764 5760 5755 5751 5746 5742 5738 5734 5732 5729 5726 5723 5722 5721 5723 5724 5725 5725 5724 5724 5725 5724 5723 5723 5721 5720 5720 5717 5713 5712 5712 5709 5702 5699 5703 5708 5709 5711 5711 5711
5778 5772 5768 5764 5760 5757 5752 5747 5742 5738 5734 5731 5729 5727 5724 5722 5723 5724 5724 5724 5724 5724 5724 5724 5724 5723 5723 5721 5721 5720 5719 5716 5712 5711 5711 5710 5708 5703 5702 5706 5709 5710 5711
5778 5773 5770 5766 5762 5758 5752 5748 5742 5738 5735 5732 5730 5728 5726 5725 5724 5724 5723 5723 5723 5724 5724 5724 5723 5723 5722 5721 5720 5719 5718 5717 5715 5713 5711 5709 5707 5706 5704 5702 5705 5708 5711
5776 5772 5769 5765 5761 5757 5752 5747 5742 5737 5735 5733 5730 5728 5726 5724 5722 5722 5721 5721 5722 5723 5723 5723 5722 5722 5721 5721 5720 5719 5718 5717 5716 5715 5713 5711 5709 5706 5705 5703 5703 5704 5709
5773 5769 5765 5762 5759 5755 5751 5747 5742 5738 5735 5732 5729 5729 5727 5725 5723 5723 5722 5721 5720 5721 5722 5722 5721 5721 5720 5720 5719 5718 5717 5717 5716 5715 5714 5713 5712 5711 5708 5705 5703 5703 5705
5771 5768 5765 5762 5758 5754 5751 5747 5742 5738 5735 5732 5730 5729 5727 5726 5725 5725 5724 5722 5722 5722 5722 5721 5720 5720 5719 5719 5718 5717 5716 5716 5715 5715 5714 5712 5712 5711 5710 5708 5704 5701 5702
5769 5766 5763 5760 5757 5753 5750 5746 5742 5738 5735 5733 5731 5728 5727 5726 5726 5725 5724 5723 5722 5722 5721 5720 5719 5719 5718 5717 5716 5715 5715 5714 5714 5714 5713 5712 5711 5711 5710 5709 5708 5704 5699
5765 5763 5760 5758 5755 5753 5749 5746 5742 5738 5735 5733 5730 5729 5727 5727 5725 5723 5721 5721 5721 5720 5719 5718 5718 5717 5716 5716 5714 5713 5713 5712 5712 5711 5710 5710 5710 5709 5709 5708 5707 5705 5703
5763 5761 5758 5756 5754 5751 5748 5745 5742 5738 5734 5732 5730 5728 5726 5725 5723 5722 5721 5720 5719 5718 5717 5717 5716 5715 5714 5714 5713 5712 5711 5710 5710 5709 5709 5708 5707 5706 5706 5705 5704 5703 5701
5762 5759 5757 5754 5751 5749 5746 5744 5741 5738 5735 5732 5729 5727 5725 5723 5722 5720 5720 5719 5718 5717 5716 5716 5714 5713 5712 5712 5711 5710 5709 5708 5707 5706 5705 5705 5704 5703 5702 5701 5701 5700 5699
5760 5757 5754 5751 5749 5747 5745 5742 5740 5738 5735 5732 5729 5727 5725 5723 5721 5720 5719 5718 5717 5715 5714 5713 5712 5712 5711 5711 5710 5709 5708 5706 5705 5704 5702 5702 5701 5699 5698 5698 5697 5696 5696
5757 5754 5752 5750 5748 5746 5744 5742 5739 5738 5735 5732 5728 5726 5724 5722 5721 5719 5718 5716 5715 5713 5712 5711 5710 5710 5709 5708 5708 5707 5705 5703 5702 5701 5700 5700 5698 5697 5695 5694 5692 5691 5690
5752 5750 5748 5746 5744 5743 5741 5740 5738 5736 5735 5731 5727 5725 5724 5722 5719 5717 5716 5714 5712 5711 5709 5708 5707 5707 5706 5706 5705 5704 5702 5699 5698 5698 5697 5696 5695 5693 5691 5690 5688 5687 5684
5748 5747 5745 5743 5742 5740 5738 5737 5735 5734 5732 5729 5727 5725 5722 5720 5718 5716 5713 5711 5709 5707 5706 5704 5703 5702 5702 5702 5701 5700 5698 5695 5694 5692 5691 5690 5689 5688 5686 5685 5683 5681 5678
5744 5742 5741 5740 5740 5738 5736 5734 5733 5732 5729 5726 5724 5722 5720 5718 5716 5713 5710 5708 5706 5704 5701 5699 5698 5697 5696 5696 5696 5694 5693 5690 5688 5686 5685 5684 5683 5681 5680 5678 5676 5673 5672
5739 5738 5737 5736 5736 5736 5734 5732 5730 5729 5726 5723 5721 5719 5717 5714 5711 5709 5706 5704 5702 5699 5697 5695 5693 5692 5690 5690 5689 5687 5685 5683 5680 5679 5678 5676 5674 5673 5672 5670 5667 5664 5662
5732 5732 5733 5733 5732 5731 5730 5728 5725 5724 5722 5719 5716 5714 5712 5709 5706 5704 5702 5699 5697 5693 5691 5688 5686 5685 5683 5682 5682 5680 5677 5674 5671 5669 5667 5666 5665 5664 5663 5660 5657 5654 5651
5724 5725 5726 5726 5726 5725 5725 5722 5719 5717 5715 5714 5712 5710 5708 5705 5702 5699 5697 5694 5690 5686 5683 5680 5677 5676 5673 5673 5672 5672 5670 5666 5662 5659 5657 5655 5654 5653 5651 5649 5646 5642 5639
5715 5717 5717 5717 5718 5719 5718 5715 5712 5709 5708 5707 5705 5703 5701 5699 5696 5693 5689 5686 5682 5678 5673 5670 5666 5664 5663 5662 5662 5662 5660 5657 5653 5649 5645 5643 5641 5640 5638 5636 5633 5629 5627
5705 5707 5708 5708 5708 5710 5709 5706 5702 5701 5700 5698 5696 5694 5692 5690 5687 5684 5680 5676 5673 5669 5664 5659 5655 5652 5651 5651 5650 5650 5649 5647 5642 5636 5632 5629 5628 5626 5623 5621 5617 5615 5612
5694 5696 5697 5696 5696 5697 5698 5695 5693 5692 5690 5688 5685 5683 5681 5679 5677 5674 5670 5666 5662 5659 5654 5649 5644 5640 5638 5638 5637 5637 5636 5633 5629 5623 5619 5616 5613 5611 5608 5604 5602 5600 5597
5683 5685 5685 5684 5684 5685 5685 5683 5682 5681 5680 5676 5673 5671 5669 5666 5663 5660 5658 5654 5650 5647 5642 5639 5634 5629 5626 5625 5624 5623 5620 5617 5613 5608 5606 5602 5598 5595 5591 5588 5585 5582 5578
5671 5672 5672 5671 5671 5671 5671 5671 5670 5670 5667 5664 5661 5658 5655 5652 5648 5643 5639 5637 5634 5633 5630 5626 5623 5619 5614 5610 5610 5610 5606 5602 5599 5595 5592 5587 5583 5578 5574 5570 5566 5563 5560
5660 5660 5659 5659 5658 5658 5658 5657 5658 5658 5656 5652 5648 5645 5641 5638 5634 5630 5623 5619 5618 5616 5614 5612 5609 5604 5600 5597 5595 5593 5590 5587 5584 5582 5575 5569 5564 5560 5555 5551 5547 5543 5539